Flag for India Weather past 2 weeks in Jharsuguda, Odisha, India

Now
73 °F

Haze.


Feels Like: 72 °F
Forecast: 75 / 85 °F
Wind: 2 mph from West

Location: Nagpur Sonegaon

Current Time: Aug 2, 2015 at 4:34:38 AM

Latest Report: Aug 2, 2015 at 3:10 AM


Visibility: 2 mi

Pressure: 29.77 "Hg

Humidity: 89%

Dew point: 70 °F

Location of JharsugudaLocation

Historic Weather in Jharsuguda — Graph

°F

Jharsuguda temperature yesterday

Maximum temperature yesterday: 93 °F (at 2:10 PM)
Minimum temperature yesterday: 75 °F (at 3:40 AM)
Average temperature yesterday: 83 °F

Past Weeks' High & Low Weather Summary

 TemperatureHumidityPressure
High97 °F (Jul 18, 2:40 PM)100% (Jul 20, 7:40 AM)29.83 "Hg (Jul 20, 7:40 AM)
Low73 °F (Jul 24, 2:40 AM)49% (Aug 1, 5:10 PM)29.47 "Hg (Jul 20, 5:10 PM)
Average81 °F81%29.67 "Hg
* Reported Jul 18 12:40 AM — Aug 2 1:10 AM, Jharsuguda, Weather by CustomWeather, © 2015

Note: Actual official high and low records may vary slightly from our data, if they occured in-between our weather recording intervals... More about our weather records

Advertising

Jharsuguda weather history for previous 24 hours

 ConditionsComfort  
Time TempWeatherWind HumidityBarometerVisibility
1:10 AM
Sun, Aug 2
79 °FHaze.3 mph70%29.77 "Hg2 mi
12:10 AM79 °FHaze.No wind74%29.80 "Hg2 mi
11:10 PM
Sat, Aug 1
79 °FHaze.6 mph74%29.80 "Hg2 mi
10:40 PM81 °FHaze.6 mph70%29.80 "Hg2 mi
10:10 PM81 °FHaze.6 mph70%29.77 "Hg2 mi
9:10 PM82 °FHaze.6 mph66%29.77 "Hg2 mi
8:10 PM82 °FHaze.6 mph66%29.74 "Hg2 mi
7:10 PM86 °FScattered clouds.5 mph59%29.74 "Hg2 mi
6:40 PM88 °FScattered clouds.5 mph55%29.74 "Hg3 mi
6:10 PM88 °FBroken clouds.10 mph55%29.71 "Hg3 mi
5:40 PM90 °FBroken clouds.9 mph52%29.71 "Hg3 mi
5:10 PM91 °FScattered clouds.9 mph49%29.71 "Hg3 mi
4:40 PM91 °FBroken clouds.7 mph52%29.71 "Hg3 mi
4:10 PM90 °FBroken clouds.7 mph59%29.71 "Hg3 mi
3:40 PM90 °FBroken clouds.9 mph55%29.71 "Hg3 mi
3:10 PM90 °FBroken clouds.12 mph55%29.74 "Hg3 mi
2:40 PM90 °FBroken clouds.10 mph55%29.74 "Hg3 mi
2:10 PM93 °FBroken clouds.14 mph53%29.74 "Hg3 mi
1:10 PM90 °FBroken clouds.9 mph59%29.80 "Hg4 mi
12:10 PM90 °FBroken clouds.10 mph59%29.80 "Hg4 mi
11:40 AM88 °FBroken clouds.9 mph62%29.83 "Hg4 mi
10:40 AM86 °FPartly sunny.13 mph66%29.83 "Hg4 mi
10:10 AM84 °FPartly sunny.12 mph70%29.83 "Hg4 mi
9:40 AM84 °FPartly sunny.10 mph70%29.83 "Hg3 mi
9:10 AM84 °FPartly sunny.12 mph70%29.83 "Hg3 mi
8:40 AM82 °FPartly sunny.8 mph74%29.83 "Hg3 mi
8:10 AM81 °FHaze.2 mph79%29.80 "Hg3 mi
7:40 AM77 °FHaze.No wind83%29.80 "Hg3 mi
7:10 AM77 °FPartly sunny.No wind83%29.80 "Hg3 mi
6:40 AM75 °FPartly sunny.No wind89%29.77 "Hg2 mi
6:10 AM75 °FPassing clouds.No wind83%29.77 "Hg2 mi
5:40 AM75 °FPassing clouds.No wind83%29.74 "Hg2 mi
5:10 AM75 °FPassing clouds.No wind83%29.74 "Hg3 mi
Weather by CustomWeather, © 2015

See weather overviewHow to use our weather pages